Flag for Vietnam Weather past 2 weeks in Da Nang, Vietnam

Now
86 °F

Passing clouds.


Feels Like: 92 °F
Forecast: 82 / 93 °F
Wind: 12 mph from Southwest

Location: Da Nang Airport

Current Time: Sep 16, 2014 at 9:07:09 PM

Latest Report: Sep 16, 2014 at 8:30 PM


Visibility: N/A

Pressure: 29.50 "Hg

Humidity: 62%

Dew point: 72 °F

Location of Da NangLocation

Historic Weather in Da Nang — Graph

°F

Da Nang temperature yesterday

Maximum temperature yesterday: 95 °F (at 10:00 AM)
Minimum temperature yesterday: 77 °F (at 3:30 AM)
Average temperature yesterday: 86 °F

Past Weeks' High & Low Weather Summary

 TemperatureHumidityPressure
High95 °F (Sep 8, 10:30 AM)94% (Sep 1, 8:30 PM)29.86 "Hg (Sep 1, 8:30 PM)
Low73 °F (Sep 5, 5:30 AM)49% (Sep 13, 11:30 AM)29.42 "Hg (Sep 16, 2:00 PM)
Average84 °F75%29.72 "Hg
* Reported Sep 1 7:00 PM — Sep 16 7:00 PM, Da Nang, Weather by CustomWeather, © 2014

Note: Actual official high and low records may vary slightly from our data, if they occured in-between our weather recording intervals... More about our weather records

Advertising

Da Nang weather history for previous 24 hours

 ConditionsComfort  
Time TempWeatherWind HumidityBarometerVisibility
7:00 PM
Sep 16
84 °FPassing clouds.5 mph70%29.47 "HgN/A
6:00 PM84 °FPartly cloudy.5 mph70%29.47 "HgN/A
5:00 PM86 °FPartly sunny.7 mph66%29.45 "HgN/A
4:00 PM86 °FPartly sunny.2 mph75%29.42 "HgN/A
3:00 PM86 °FPartly sunny.6 mph75%29.42 "HgN/A
2:30 PM84 °FLight rain. Partly sunny.No wind79%29.42 "HgN/A
2:00 PM86 °FLight rain. Partly sunny.No wind66%29.42 "HgN/A
1:00 PM84 °FLight rain. Broken clouds.3 mph74%29.45 "Hg5 mi
12:00 PM86 °FLight rain. Broken clouds.6 mph70%29.45 "Hg5 mi
11:30 AM88 °FLight rain. Broken clouds.7 mph66%29.45 "Hg5 mi
11:00 AM88 °FBroken clouds.5 mph62%29.47 "Hg5 mi
10:30 AM90 °FBroken clouds.6 mph59%29.47 "Hg5 mi
9:30 AM88 °FLight rain. Broken clouds.2 mph66%29.47 "Hg5 mi
9:00 AM88 °FBroken clouds.1 mph62%29.47 "Hg5 mi
8:30 AM88 °FLight rain. Broken clouds.1 mph62%29.47 "Hg5 mi
8:00 AM86 °FLight rain. Broken clouds.1 mph75%29.47 "Hg5 mi
7:30 AM82 °FLight rain. Broken clouds.1 mph79%29.47 "Hg5 mi
7:00 AM82 °FBroken clouds.2 mph79%29.47 "HgN/A
6:30 AM82 °FBroken clouds.3 mph74%29.47 "HgN/A
6:00 AM84 °FBroken clouds.2 mph70%29.45 "HgN/A
5:30 AM82 °FPartly cloudy.1 mph74%29.47 "Hg5 mi
5:00 AM84 °FPartly cloudy.1 mph70%29.45 "Hg5 mi
4:30 AM82 °FPartly cloudy.2 mph74%29.45 "Hg5 mi
4:00 AM82 °FPartly cloudy.6 mph74%29.45 "Hg5 mi
3:30 AM82 °FPartly cloudy.3 mph79%29.45 "Hg5 mi
3:00 AM82 °FPartly cloudy.2 mph79%29.45 "Hg5 mi
2:30 AM82 °FPartly cloudy.2 mph79%29.47 "Hg5 mi
2:00 AM84 °FPartly cloudy.2 mph74%29.47 "Hg5 mi
1:30 AM84 °FPartly cloudy.1 mph74%29.50 "Hg5 mi
1:00 AM84 °FPartly cloudy.3 mph70%29.50 "Hg5 mi
12:30 AM84 °FPartly cloudy.5 mph74%29.50 "Hg5 mi
12:00 AM84 °FPartly cloudy.2 mph74%29.53 "Hg5 mi
11:00 PM
Sep 15
86 °FPartly cloudy.1 mph70%29.56 "Hg5 mi
10:30 PM86 °FPartly cloudy.2 mph66%29.56 "Hg5 mi
10:00 PM86 °FPartly cloudy.1 mph66%29.56 "Hg5 mi
9:30 PM86 °FPartly cloudy.1 mph66%29.56 "Hg5 mi
9:00 PM86 °FPartly cloudy.2 mph66%29.56 "Hg5 mi
Weather by CustomWeather, © 2014

See weather overviewHow to use our weather pages